Time,TemperatureF,DewpointF,PressureIn,WindDirection,WindDirectionDegrees,WindSpeedMPH,WindSpeedGustMPH,Humidity,HourlyPrecipIn,Conditions,Clouds,dailyrainin,SolarRadiationWatts/m^2,SoftwareType,DateUTC
2013-01-20 00:02:00,12.0,8.0,-100.00,NNE,14,0.0,0.0,84,0.00,,,0.00,0.000000,,2013-01-20 07:02:00,
2013-01-20 00:32:00,10.0,7.0,-100.00,NNE,13,0.0,0.0,86,0.00,,,0.00,0.000000,,2013-01-20 07:32:00,
2013-01-20 00:42:00,10.0,7.0,-100.00,NNE,13,0.0,0.0,86,0.00,,,0.00,0.000000,,2013-01-20 07:42:00,
2013-01-20 00:52:00,10.0,7.0,-100.00,NNE,13,0.0,0.0,86,0.00,,,0.00,0.000000,,2013-01-20 07:52:00,
2013-01-20 01:02:00,10.0,7.0,-100.00,NNE,13,0.0,0.0,86,0.00,,,0.00,0.000000,,2013-01-20 08:02:00,
2013-01-20 01:32:00,8.0,5.0,-100.00,WSW,237,0.0,0.0,86,0.00,,,0.00,0.000000,,2013-01-20 08:32:00,
2013-01-20 01:42:00,8.0,5.0,-100.00,WSW,237,0.0,0.0,86,0.00,,,0.00,0.000000,,2013-01-20 08:42:00,
2013-01-20 01:52:00,8.0,5.0,-100.00,WSW,237,0.0,0.0,86,0.00,,,0.00,0.000000,,2013-01-20 08:52:00,
2013-01-20 02:02:00,8.0,5.0,-100.00,WSW,237,0.0,0.0,86,0.00,,,0.00,0.000000,,2013-01-20 09:02:00,
2013-01-20 02:33:00,7.0,3.0,-100.00,North,4,0.0,0.0,84,0.00,,,0.00,0.000000,,2013-01-20 09:33:00,
2013-01-20 02:42:00,7.0,3.0,-100.00,North,4,0.0,0.0,84,0.00,,,0.00,0.000000,,2013-01-20 09:42:00,
2013-01-20 02:52:00,7.0,3.0,-100.00,North,4,0.0,0.0,84,0.00,,,0.00,0.000000,,2013-01-20 09:52:00,
2013-01-20 03:02:00,7.0,3.0,-100.00,North,4,0.0,0.0,84,0.00,,,0.00,0.000000,,2013-01-20 10:02:00,
2013-01-20 03:32:00,5.0,1.0,-100.00,NNE,17,0.0,0.0,83,0.00,,,0.00,0.000000,,2013-01-20 10:32:00,
2013-01-20 03:42:00,5.0,1.0,-100.00,NNE,17,0.0,0.0,83,0.00,,,0.00,0.000000,,2013-01-20 10:42:00,
2013-01-20 03:52:00,5.0,1.0,-100.00,NNE,17,0.0,0.0,83,0.00,,,0.00,0.000000,,2013-01-20 10:52:00,
2013-01-20 04:02:00,5.0,1.0,-100.00,NNE,17,0.0,0.0,83,0.00,,,0.00,0.000000,,2013-01-20 11:02:00,
2013-01-20 04:33:00,4.0,-1.0,-100.00,NNE,32,0.0,0.0,81,0.00,,,0.00,0.000000,,2013-01-20 11:33:00,
2013-01-20 04:43:00,4.0,-1.0,-100.00,NNE,32,0.0,0.0,81,0.00,,,0.00,0.000000,,2013-01-20 11:43:00,
2013-01-20 04:53:00,4.0,-1.0,-100.00,NNE,32,0.0,0.0,81,0.00,,,0.00,0.000000,,2013-01-20 11:53:00,
2013-01-20 05:02:00,4.0,-1.0,-100.00,NNE,32,0.0,0.0,81,0.00,,,0.00,0.000000,,2013-01-20 12:02:00,
2013-01-20 05:33:00,3.0,-1.0,-100.00,NNE,14,0.0,0.0,81,0.00,,,0.00,0.000000,,2013-01-20 12:33:00,
2013-01-20 05:43:00,3.0,-1.0,-100.00,NNE,14,0.0,0.0,81,0.00,,,0.00,0.000000,,2013-01-20 12:43:00,
2013-01-20 05:53:00,3.0,-1.0,-100.00,NNE,14,0.0,0.0,81,0.00,,,0.00,0.000000,,2013-01-20 12:53:00,
2013-01-20 06:02:00,3.0,-1.0,-100.00,NNE,14,0.0,0.0,81,0.00,,,0.00,0.000000,,2013-01-20 13:02:00,
2013-01-20 06:33:00,3.0,-1.0,-100.00,North,11,0.0,0.0,81,0.00,,,0.00,0.000000,,2013-01-20 13:33:00,
2013-01-20 06:43:00,3.0,-1.0,-100.00,North,11,0.0,0.0,81,0.00,,,0.00,0.000000,,2013-01-20 13:43:00,
2013-01-20 06:52:00,3.0,-1.0,-100.00,North,11,0.0,0.0,81,0.00,,,0.00,0.000000,,2013-01-20 13:52:00,
2013-01-20 07:02:00,3.0,-1.0,-100.00,North,11,0.0,0.0,81,0.00,,,0.00,0.000000,,2013-01-20 14:02:00,
2013-01-20 07:33:00,2.0,-3.0,-100.00,NNE,23,0.0,0.0,80,0.00,,,0.00,0.000000,,2013-01-20 14:33:00,
2013-01-20 07:43:00,2.0,-3.0,-100.00,NNE,23,0.0,0.0,80,0.00,,,0.00,0.000000,,2013-01-20 14:43:00,
2013-01-20 07:53:00,2.0,-3.0,-100.00,NNE,23,0.0,0.0,80,0.00,,,0.00,0.000000,,2013-01-20 14:53:00,
2013-01-20 08:02:00,2.0,-3.0,-100.00,NNE,23,0.0,0.0,80,0.00,,,0.00,0.000000,,2013-01-20 15:02:00,
2013-01-20 08:33:00,4.0,-1.0,-100.00,NNE,29,0.0,0.0,80,0.00,,,0.00,22.000000,,2013-01-20 15:33:00,
2013-01-20 08:43:00,4.0,-1.0,-100.00,NNE,29,0.0,0.0,80,0.00,,,0.00,22.000000,,2013-01-20 15:43:00,
2013-01-20 08:53:00,4.0,-1.0,-100.00,NNE,29,0.0,0.0,80,0.00,,,0.00,22.000000,,2013-01-20 15:53:00,
2013-01-20 09:02:00,4.0,-1.0,-100.00,NNE,29,0.0,0.0,80,0.00,,,0.00,22.000000,,2013-01-20 16:02:00,
2013-01-20 09:33:00,18.0,13.0,-100.00,ENE,64,0.0,0.0,79,0.00,,,0.00,199.000000,,2013-01-20 16:33:00,
2013-01-20 09:43:00,18.0,13.0,-100.00,ENE,64,0.0,0.0,79,0.00,,,0.00,199.000000,,2013-01-20 16:43:00,
2013-01-20 09:53:00,18.0,13.0,-100.00,ENE,64,0.0,0.0,79,0.00,,,0.00,199.000000,,2013-01-20 16:53:00,
2013-01-20 10:02:00,18.0,13.0,-100.00,ENE,64,0.0,0.0,79,0.00,,,0.00,199.000000,,2013-01-20 17:02:00,
2013-01-20 10:33:00,35.0,20.0,-100.00,ENE,70,0.0,0.0,53,-99.99,,,0.00,357.000000,,2013-01-20 17:33:00,
2013-01-20 10:43:00,35.0,20.0,-100.00,ENE,70,0.0,0.0,53,-99.99,,,0.00,357.000000,,2013-01-20 17:43:00,
2013-01-20 10:53:00,35.0,20.0,-100.00,ENE,70,0.0,0.0,53,-99.99,,,0.00,357.000000,,2013-01-20 17:53:00,
2013-01-20 11:02:00,35.0,20.0,-100.00,ENE,70,0.0,0.0,53,-99.99,,,0.00,357.000000,,2013-01-20 18:02:00,
2013-01-20 11:33:00,42.0,18.0,-100.00,NE,56,3.0,7.0,38,0.00,,,0.00,506.000000,,2013-01-20 18:33:00,
2013-01-20 11:43:00,42.0,18.0,-100.00,NE,56,3.0,7.0,38,0.00,,,0.00,506.000000,,2013-01-20 18:43:00,
2013-01-20 11:53:00,42.0,18.0,-100.00,NE,56,3.0,7.0,38,0.00,,,0.00,506.000000,,2013-01-20 18:53:00,
2013-01-20 12:02:00,42.0,18.0,-100.00,NE,56,3.0,7.0,38,0.00,,,0.00,506.000000,,2013-01-20 19:02:00,
2013-01-20 12:33:00,49.0,18.0,-100.00,NE,35,0.0,6.0,29,0.00,,,0.00,592.000000,,2013-01-20 19:33:00,
2013-01-20 12:43:00,49.0,18.0,-100.00,NE,35,0.0,6.0,29,0.00,,,0.00,592.000000,,2013-01-20 19:43:00,
2013-01-20 12:52:00,49.0,18.0,-100.00,NE,35,0.0,6.0,29,0.00,,,0.00,592.000000,,2013-01-20 19:52:00,
2013-01-20 13:02:00,49.0,18.0,-100.00,NE,35,0.0,6.0,29,0.00,,,0.00,592.000000,,2013-01-20 20:02:00,
2013-01-20 13:33:00,50.0,16.0,-100.00,NE,48,5.0,9.0,26,0.00,,,-99.99,616.000000,,2013-01-20 20:33:00,
2013-01-20 13:42:00,50.0,16.0,-100.00,NE,48,5.0,9.0,26,0.00,,,-99.99,616.000000,,2013-01-20 20:42:00,
2013-01-20 13:53:00,50.0,16.0,-100.00,NE,48,5.0,9.0,26,0.00,,,-99.99,616.000000,,2013-01-20 20:53:00,
2013-01-20 14:03:00,50.0,16.0,-100.00,NE,48,5.0,9.0,26,0.00,,,-99.99,616.000000,,2013-01-20 21:03:00,
2013-01-20 14:33:00,50.0,17.0,-100.00,ENE,64,5.0,9.0,27,0.00,,,0.00,577.000000,,2013-01-20 21:33:00,
2013-01-20 14:43:00,50.0,17.0,-100.00,ENE,64,5.0,9.0,27,0.00,,,0.00,577.000000,,2013-01-20 21:43:00,
2013-01-20 14:53:00,50.0,17.0,-100.00,ENE,64,5.0,9.0,27,0.00,,,0.00,577.000000,,2013-01-20 21:53:00,
2013-01-20 15:02:00,50.0,17.0,-100.00,ENE,64,5.0,9.0,27,0.00,,,0.00,577.000000,,2013-01-20 22:02:00,
2013-01-20 15:33:00,48.0,17.0,-100.00,NE,47,7.0,11.0,29,0.00,,,0.00,479.000000,,2013-01-20 22:33:00,
2013-01-20 15:43:00,48.0,17.0,-100.00,NE,47,7.0,11.0,29,0.00,,,0.00,479.000000,,2013-01-20 22:43:00,
2013-01-20 15:53:00,48.0,17.0,-100.00,NE,47,7.0,11.0,29,0.00,,,0.00,479.000000,,2013-01-20 22:53:00,
2013-01-20 16:03:00,48.0,17.0,-100.00,NE,47,7.0,11.0,29,0.00,,,0.00,479.000000,,2013-01-20 23:03:00,
2013-01-20 16:33:00,45.0,17.0,-100.00,ENE,70,6.0,11.0,32,0.00,,,0.00,330.000000,,2013-01-20 23:33:00,
2013-01-20 16:43:00,45.0,17.0,-100.00,ENE,70,6.0,11.0,32,0.00,,,0.00,330.000000,,2013-01-20 23:43:00,
2013-01-20 16:53:00,45.0,17.0,-100.00,ENE,70,6.0,11.0,32,0.00,,,0.00,330.000000,,2013-01-20 23:53:00,
2013-01-20 17:02:00,45.0,17.0,-100.00,ENE,70,6.0,11.0,32,0.00,,,0.00,330.000000,,2013-01-21 00:02:00,
2013-01-20 17:33:00,42.0,16.0,-100.00,ENE,63,6.0,11.0,35,0.00,,,0.00,157.000000,,2013-01-21 00:33:00,
2013-01-20 17:43:00,42.0,16.0,-100.00,ENE,63,6.0,11.0,35,0.00,,,0.00,157.000000,,2013-01-21 00:43:00,
2013-01-20 17:53:00,42.0,16.0,-100.00,ENE,63,6.0,11.0,35,0.00,,,0.00,157.000000,,2013-01-21 00:53:00,
2013-01-20 18:02:00,42.0,16.0,-100.00,ENE,63,6.0,11.0,35,0.00,,,0.00,157.000000,,2013-01-21 01:02:00,
2013-01-20 18:33:00,33.0,14.0,-100.00,NNE,19,0.0,7.0,45,0.00,,,0.00,15.000000,,2013-01-21 01:33:00,
2013-01-20 18:43:00,33.0,14.0,-100.00,NNE,19,0.0,7.0,45,0.00,,,0.00,15.000000,,2013-01-21 01:43:00,
2013-01-20 18:53:00,33.0,14.0,-100.00,NNE,19,0.0,7.0,45,0.00,,,0.00,15.000000,,2013-01-21 01:53:00,
2013-01-20 19:02:00,33.0,14.0,-100.00,NNE,19,0.0,7.0,45,0.00,,,0.00,15.000000,,2013-01-21 02:02:00,
2013-01-20 19:33:00,24.0,15.0,-100.00,NNW,331,0.0,0.0,68,0.00,,,-99.99,0.000000,,2013-01-21 02:33:00,
2013-01-20 19:43:00,24.0,15.0,-100.00,NNW,331,0.0,0.0,68,0.00,,,-99.99,0.000000,,2013-01-21 02:43:00,
2013-01-20 19:53:00,24.0,15.0,-100.00,NNW,331,0.0,0.0,68,0.00,,,-99.99,0.000000,,2013-01-21 02:53:00,
2013-01-20 20:02:00,24.0,15.0,-100.00,NNW,331,0.0,0.0,68,0.00,,,-99.99,0.000000,,2013-01-21 03:02:00,
2013-01-20 20:33:00,22.0,14.0,-100.00,North,351,0.0,0.0,71,0.00,,,0.00,0.000000,,2013-01-21 03:33:00,
2013-01-20 20:43:00,22.0,14.0,-100.00,North,351,0.0,0.0,71,0.00,,,0.00,0.000000,,2013-01-21 03:43:00,
2013-01-20 20:53:00,22.0,14.0,-100.00,North,351,0.0,0.0,71,0.00,,,0.00,0.000000,,2013-01-21 03:53:00,
2013-01-20 21:02:00,22.0,14.0,-100.00,North,351,0.0,0.0,71,0.00,,,0.00,0.000000,,2013-01-21 04:02:00,
2013-01-20 21:33:00,18.0,13.0,-100.00,NE,44,0.0,0.0,81,0.00,,,0.00,0.000000,,2013-01-21 04:33:00,
2013-01-20 21:43:00,18.0,13.0,-100.00,NE,44,0.0,0.0,81,0.00,,,0.00,0.000000,,2013-01-21 04:43:00,
2013-01-20 21:53:00,18.0,13.0,-100.00,NE,44,0.0,0.0,81,0.00,,,0.00,0.000000,,2013-01-21 04:53:00,
2013-01-20 22:03:00,18.0,13.0,-100.00,NE,44,0.0,0.0,81,0.00,,,0.00,0.000000,,2013-01-21 05:03:00,
2013-01-20 22:34:00,16.0,12.0,-100.00,NE,34,0.0,0.0,83,0.00,,,0.00,0.000000,,2013-01-21 05:34:00,
2013-01-20 22:42:00,16.0,12.0,-100.00,NE,34,0.0,0.0,83,0.00,,,0.00,0.000000,,2013-01-21 05:42:00,
2013-01-20 22:53:00,16.0,12.0,-100.00,NE,34,0.0,0.0,83,0.00,,,0.00,0.000000,,2013-01-21 05:53:00,
2013-01-20 23:02:00,16.0,12.0,-100.00,NE,34,0.0,0.0,83,0.00,,,0.00,0.000000,,2013-01-21 06:02:00,
2013-01-20 23:33:00,14.0,11.0,-100.00,NNW,332,0.0,0.0,87,0.00,,,0.00,0.000000,,2013-01-21 06:33:00,
2013-01-20 23:43:00,14.0,11.0,-100.00,NNW,332,0.0,0.0,87,0.00,,,0.00,0.000000,,2013-01-21 06:43:00,
2013-01-20 23:53:00,14.0,11.0,-100.00,NNW,332,0.0,0.0,87,0.00,,,0.00,0.000000,,2013-01-21 06:53:00,